Location: The Saddle
(36.8333°N, 80.3417°W)
Time: 08:35:38
(UTC-05:00)

A-11 Canister half - Pass Details

Date: 15 December 2023
Orbit: 1526 x 1682 km, 47.3° (Epoch: 27 February)

Event Time Altitude Azimuth Distance (km) Brightness Sun altitude
Rises 17:23:37 0° 254° (WSW) 4,887 14.0 -3.9°
Reaches altitude 10° 17:26:49 10° 257° (WSW) 3,915 12.8 -4.5°
Maximum altitude 17:36:47 62° 337° (NNW) 1,857 9.5 -6.3°
Drops below altitude 10° 17:46:51 10° 58° (ENE) 3,937 10.5 -8.2°
Enters shadow 17:47:13 - 58° (ENE) 4,047 10.5 -8.2°
Sets 17:50:05 0° 62° (ENE) 4,916 - -8.8°
